GW0776 Weather Reports


time (UTC)temp
F
wind
direction
speed
knots
gust
knots
rain 1hr
in
rain 24hr
in
rain mn
in
humidity
%
barometer
mb
20260506110511 75 188 0.0 0.9 0.00 0.00 0.00 93 1009.2
20260506110011 75 146 0.9 0.9 0.00 0.00 0.00 92 1009.1
20260506105511 75 259 0.0 4.3 0.00 0.00 0.00 92 1009.1
20260506105011 76 162 0.0 4.3 0.00 0.00 0.00 92 1009.0
20260506104511 76 134 3.5 0.9 0.00 0.00 0.00 92 1009.0
20260506104011 76 144 0.0 1.7 0.00 0.00 0.00 92 1009.1
20260506103511 76 156 0.0 1.7 0.00 0.00 0.00 92 1009.0
20260506103011 76 165 0.0 1.7 0.00 0.00 0.00 92 1009.1
20260506102011 76 181 0.0 0.9 0.00 0.00 0.00 92 1009.0
20260506101511 76 181 0.0 2.6 0.00 0.00 0.00 92 1009.1
20260506101011 76 179 0.0 2.6 0.00 0.00 0.00 92 1009.1
20260506100511 76 165 0.0 2.6 0.00 0.00 0.00 91 1009.0
20260506100011 76 147 0.0 0.9 0.00 0.00 0.00 91 1009.0
20260506095511 76 225 0.0 0.9 0.00 0.00 0.00 91 1009.0
20260506095011 76 157 0.0 4.3 0.00 0.00 0.00 91 1008.8
20260506094011 76 185 0.0 3.5 0.00 0.00 0.00 91 1008.7
20260506092511 77 213 1.7 6.1 0.00 0.00 0.00 90 1008.7
20260506092011 77 131 3.5 8.7 0.00 0.00 0.00 91 1008.7
20260506091010 77 194 0.0 6.1 0.00 0.00 0.00 91 1008.6
20260506090510 77 198 0.9 3.5 0.00 0.00 0.00 90 1008.7
20260506090011 77 142 2.6 5.2 0.00 0.00 0.00 90 1008.6
20260506085511 77 209 1.7 7.0 0.00 0.00 0.00 90 1008.7
20260506084510 77 166 0.0 4.3 0.00 0.00 0.00 90 1008.8
20260506084011 77 162 0.0 4.3 0.00 0.00 0.00 90 1008.8
20260506083510 77 160 0.9 5.2 0.00 0.00 0.00 90 1008.8
20260506083010 77 138 3.5 5.2 0.00 0.00 0.00 90 1008.8
20260506082510 77 170 1.7 3.5 0.00 0.00 0.00 90 1008.9
20260506082011 77 130 0.0 3.5 0.00 0.00 0.00 90 1008.9
20260506081010 77 224 0.9 4.3 0.00 0.00 0.00 90 1009.2
20260506073510 77 163 1.7 3.5 0.00 0.00 0.00 90 1009.5
20260506073011 77 196 0.9 4.3 0.00 0.00 0.00 89 1009.7
20260506072510 77 198 0.0 4.3 0.00 0.00 0.00 89 1009.7
20260506072010 77 168 0.9 3.5 0.00 0.00 0.00 89 1009.7
20260506071510 77 146 0.9 2.6 0.00 0.00 0.00 89 1009.8
20260506071010 77 156 0.9 7.0 0.00 0.00 0.00 89 1009.9
20260506070510 77 156 0.9 7.0 0.00 0.00 0.00 89 1009.9
20260506062011 77 152 0.9 2.6 0.00 0.00 0.00 89 1010.0
20260506061510 77 192 0.9 4.3 0.00 0.00 0.00 89 1010.0
20260506061010 77 221 1.7 5.2 0.00 0.00 0.00 89 1010.1
20260506060510 77 152 1.7 5.2 0.00 0.00 0.00 89 1010.1
20260506051011 77 127 0.9 3.5 0.00 0.00 0.00 89 1010.3
20260506045011 78 196 2.6 6.1 0.00 0.00 0.00 88 1009.9
20260506044511 78 167 0.9 5.2 0.00 0.00 0.00 88 1009.9
20260506044011 78 99 0.0 5.2 0.00 0.00 0.00 87 1010.1
20260506043511 78 145 2.6 5.2 0.00 0.00 0.00 87 1010.1
20260506042511 78 193 0.9 6.1 0.00 0.00 0.00 87 1010.2
20260506042011 78 179 0.9 6.1 0.00 0.00 0.00 87 1010.0
20260506041011 78 160 6.1 7.0 0.00 0.00 0.00 87 1009.8
20260506040511 78 169 1.7 7.0 0.00 0.00 0.00 87 1009.9
20260506040011 78 175 2.6 6.1 0.00 0.00 0.00 86 1009.8
20260506035511 78 195 1.7 7.0 0.00 0.00 0.00 86 1009.7
20260506035011 78 118 0.9 7.8 0.00 0.00 0.00 86 1009.6
20260506034511 78 147 0.9 7.8 0.00 0.00 0.00 86 1009.5
20260506034011 79 157 2.6 7.0 0.00 0.00 0.00 86 1009.6
20260506032511 79 169 5.2 9.6 0.00 0.00 0.00 85 1009.4
20260506032011 79 124 2.6 8.7 0.00 0.00 0.00 85 1009.3
20260506031011 79 163 2.6 6.1 0.00 0.00 0.00 85 1009.3
20260506030511 79 178 0.9 7.0 0.00 0.00 0.00 85 1009.3
20260506030011 79 237 0.9 7.0 0.00 0.00 0.00 84 1009.2
20260506025511 79 269 0.9 7.8 0.00 0.00 0.00 84 1009.1
20260506025011 79 163 2.6 7.8 0.00 0.00 0.00 84 1009.0
20260506024511 79 217 2.6 4.3 0.00 0.00 0.00 84 1008.9
20260506024010 79 180 0.9 7.0 0.00 0.00 0.00 84 1008.7
20260506023511 79 130 0.9 7.0 0.00 0.00 0.00 84 1008.6
20260506023011 79 196 0.0 7.0 0.00 0.00 0.00 84 1008.6
20260506022510 79 210 1.7 7.0 0.00 0.00 0.00 83 1008.5
20260506021511 79 159 1.7 7.0 0.00 0.00 0.00 83 1008.5
20260506021011 79 169 3.5 7.0 0.00 0.00 0.00 83 1008.4
20260506020011 80 194 1.7 7.0 0.00 0.00 0.00 82 1008.4
20260506015511 80 200 0.9 3.5 0.00 0.00 0.00 82 1008.4
20260506015011 80 214 0.9 3.5 0.00 0.00 0.00 81 1008.3
20260506014510 80 185 0.0 3.5 0.00 0.00 0.00 81 1008.2
20260506014011 80 186 0.0 4.3 0.00 0.00 0.00 81 1008.2
20260506013511 80 200 2.6 4.3 0.00 0.00 0.00 81 1008.1
20260506013010 80 161 0.0 10.4 0.00 0.00 0.00 80 1008.1
20260506012510 80 144 1.7 10.4 0.00 0.00 0.00 80 1008.1
20260506012010 80 138 0.9 5.2 0.00 0.00 0.00 80 1008.0
20260506011511 80 237 2.6 5.2 0.00 0.00 0.00 80 1007.8
20260506011011 80 152 2.6 6.1 0.00 0.00 0.00 80 1007.7
20260506010511 80 203 0.9 6.1 0.00 0.00 0.00 80 1007.6
20260506010010 80 202 1.7 6.1 0.00 0.00 0.00 80 1007.7
20260506005511 80 180 0.9 6.1 0.00 0.00 0.00 80 1007.7
20260506004510 81 144 1.7 3.5 0.00 0.00 0.00 79 1007.7
20260506004011 81 176 1.7 5.2 0.00 0.00 0.00 79 1007.5
20260506003510 81 156 1.7 12.2 0.00 0.00 0.00 79 1007.7
20260506003010 81 115 0.9 12.2 0.00 0.00 0.00 79 1007.6
20260506002510 81 151 4.3 12.2 0.00 0.00 0.00 79 1007.6
20260506002010 81 192 1.7 6.1 0.00 0.00 0.00 79 1007.4
20260506001510 81 145 2.6 4.3 0.00 0.00 0.00 79 1007.4
20260506001010 81 274 0.9 6.1 0.00 0.00 0.00 79 1007.3
20260506000510 81 173 3.5 8.7 0.00 0.00 0.00 79 1007.4
20260506000010 82 189 0.9 8.7 0.00 0.00 0.00 79 1007.4
20260505235510 82 133 2.6 7.0 0.00 0.00 0.00 79 1007.5
20260505235010 82 169 3.5 7.0 0.00 0.00 0.00 79 1007.3
20260505234510 82 179 1.7 7.8 0.00 0.00 0.00 79 1007.3
20260505234010 82 162 3.5 7.8 0.00 0.00 0.00 79 1007.3
20260505233510 82 125 1.7 7.0 0.00 0.00 0.00 79 1007.3
20260505232010 82 164 4.3 7.0 0.00 0.00 0.00 78 1007.3
20260505230510 83 202 3.5 5.2 0.00 0.00 0.00 76 1007.4
20260505230011 83 123 2.6 7.0 0.00 0.00 0.00 77 1007.4
20260505225511 83 197 0.0 7.0 0.00 0.00 0.00 76 1007.4
20260505224511 84 175 2.6 8.7 0.00 0.00 0.00 75 1007.2
20260505224011 84 184 1.7 8.7 0.00 0.00 0.00 75 1007.2
20260505223011 84 112 1.7 4.3 0.00 0.00 0.00 75 1007.4
20260505222511 84 171 0.9 4.3 0.00 0.00 0.00 75 1007.3
20260505222011 84 198 1.7 4.3 0.00 0.00 0.00 75 1007.4
20260505221511 84 146 1.7 4.3 0.00 0.00 0.00 75 1007.4
20260505221011 84 193 1.7 5.2 0.00 0.00 0.00 75 1007.4
20260505220511 84 152 1.7 5.2 0.00 0.00 0.00 75 1007.4
20260505220011 84 113 0.9 3.5 0.00 0.00 0.00 76 1007.5
20260505215511 84 156 0.9 7.0 0.00 0.00 0.00 76 1007.7
20260505214511 85 118 2.6 7.8 0.00 0.00 0.00 75 1007.7
20260505214011 85 136 1.7 4.3 0.00 0.00 0.00 75 1007.8
20260505213511 85 191 0.9 4.3 0.00 0.00 0.00 75 1007.8
20260505213011 85 237 0.9 6.1 0.00 0.00 0.00 75 1007.9
20260505212011 85 213 1.7 5.2 0.00 0.00 0.00 74 1008.0
20260505211511 85 188 0.0 2.6 0.00 0.00 0.00 74 1008.0
20260505211011 85 215 1.7 3.5 0.00 0.00 0.00 74 1008.1
20260505210511 85 329 0.0 3.5 0.00 0.00 0.00 73 1008.2
20260505210011 85 246 0.0 7.8 0.00 0.00 0.00 74 1008.2
20260505205011 85 179 1.7 5.2 0.00 0.00 0.00 74 1008.3
20260505204011 85 215 1.7 5.2 0.00 0.00 0.00 74 1008.4
20260505203511 85 117 1.7 6.1 0.00 0.00 0.00 74 1008.5
20260505203010 85 174 0.0 9.6 0.00 0.00 0.00 75 1008.5
20260505202511 85 214 1.7 9.6 0.00 0.00 0.00 75 1008.6
20260505202011 85 195 0.9 4.3 0.00 0.00 0.00 76 1008.8
20260505201511 84 167 0.0 4.3 0.00 0.00 0.00 76 1008.7
20260505200510 84 177 1.7 6.1 0.00 0.00 0.00 75 1009.0
20260505200010 85 186 2.6 7.0 0.00 0.00 0.00 76 1009.0
20260505195511 85 179 1.7 7.0 0.00 0.00 0.00 75 1009.0
20260505194511 84 215 0.0 4.3 0.00 0.00 0.00 77 1009.2
20260505194010 84 246 0.9 7.8 0.00 0.00 0.00 78 1009.2
20260505193510 84 212 0.9 7.8 0.00 0.00 0.00 77 1009.1
20260505193010 84 273 1.7 5.2 0.00 0.00 0.00 78 1009.2
20260505192510 83 94 0.9 7.0 0.00 0.00 0.00 79 1009.3
20260505192010 82 181 0.9 7.0 0.00 0.00 0.00 80 1009.4
20260505191510 82 246 0.0 5.2 0.00 0.00 0.00 79 1009.3
20260505191010 82 144 0.9 5.2 0.00 0.00 0.00 78 1009.4
20260505190511 82 331 0.9 5.2 0.00 0.00 0.00 79 1009.4
20260505190010 82 164 0.9 5.2 0.00 0.00 0.00 78 1009.5
20260505185511 82 234 0.9 5.2 0.00 0.00 0.00 78 1009.4
20260505185011 83 202 0.9 6.1 0.00 0.00 0.00 78 1009.4
20260505184510 83 84 1.7 6.1 0.00 0.00 0.00 77 1009.4
20260505184010 83 159 2.6 5.2 0.00 0.00 0.00 78 1009.5
20260505183511 83 215 2.6 5.2 0.00 0.00 0.00 78 1009.5
20260505183010 82 140 0.9 3.5 0.00 0.00 0.00 78 1009.6
20260505182010 82 170 0.0 5.2 0.00 0.00 0.00 79 1009.6
20260505181510 82 73 0.9 5.2 0.00 0.00 0.00 80 1009.6
20260505181010 82 190 0.9 8.7 0.00 0.00 0.00 80 1009.6
20260505180010 81 233 2.6 4.3 0.00 0.00 0.00 81 1009.6
20260505175510 81 217 0.0 4.3 0.00 0.00 0.00 81 1009.7
20260505175010 81 262 1.7 7.0 0.00 0.00 0.00 81 1009.8
20260505174510 81 233 1.7 7.0 0.00 0.00 0.00 81 1009.8
20260505174010 81 289 0.9 7.8 0.00 0.00 0.00 81 1009.9
20260505173510 81 179 1.7 7.8 0.00 0.00 0.00 81 1009.9
20260505173010 81 134 3.5 4.3 0.00 0.00 0.00 81 1009.9
20260505172511 81 214 0.9 3.5 0.00 0.00 0.00 82 1010.0
20260505172010 80 234 1.7 3.5 0.00 0.00 0.00 82 1010.0
20260505171510 80 110 1.7 4.3 0.00 0.00 0.00 82 1010.0
20260505170510 80 256 2.6 3.5 0.00 0.00 0.00 83 1010.1
20260505170010 80 36 0.0 4.3 0.00 0.00 0.00 83 1010.1
20260505165510 79 201 0.9 4.3 0.00 0.00 0.00 84 1010.2
20260505165010 79 142 0.9 3.5 0.00 0.00 0.00 84 1010.2
20260505164510 79 310 1.7 3.5 0.00 0.00 0.00 85 1010.3
20260505164010 79 158 0.0 3.5 0.00 0.00 0.00 85 1010.3
20260505163510 78 195 0.9 3.5 0.00 0.00 0.00 84 1010.7
20260505163011 79 148 1.7 3.5 0.00 0.00 0.00 84 1010.3
20260505162011 78 99 2.6 4.3 0.00 0.00 0.00 84 1010.2
20260505161511 78 174 2.6 4.3 0.00 0.00 0.00 84 1010.1
20260505160511 78 185 0.0 2.6 0.00 0.00 0.00 84 1010.2
20260505153011 78 135 2.6 9.6 0.00 0.00 0.00 84 1009.9
20260505152511 78 116 2.6 7.0 0.00 0.00 0.00 84 1009.9
20260505151511 78 227 0.9 4.3 0.00 0.00 0.00 84 1009.8
20260505151011 78 117 2.6 4.3 0.00 0.00 0.00 84 1009.9
20260505140511 76 160 2.6 7.8 0.00 0.00 0.00 87 1009.6
20260505125011 74 136 0.9 7.8 0.00 0.00 0.00 90 1009.0
20260505124510 74 159 0.9 4.3 0.00 0.00 0.00 90 1009.1
20260505124010 73 143 0.0 2.6 0.00 0.00 0.00 90 1009.4
20260505123510 73 244 0.0 2.6 0.00 0.00 0.00 90 1009.6
20260505123010 73 188 0.0 2.6 0.00 0.00 0.00 91 1009.4
20260505122010 73 164 0.0 0.0 0.00 0.00 0.00 90 1009.5
20260505121510 72 156 0.0 0.0 0.00 0.00 0.00 90 1009.3
20260505121010 72 128 0.0 1.7 0.00 0.00 0.00 90 1009.4
20260505120510 72 131 0.0 1.7 0.00 0.00 0.00 90 1009.0
20260505120010 72 179 0.9 2.6 0.00 0.00 0.00 91 1009.0
20260505115510 72 215 0.9 2.6 0.00 0.00 0.00 90 1008.9
20260505115010 72 213 0.9 2.6 0.00 0.00 0.00 90 1008.9
20260505114510 72 164 0.9 2.6 0.00 0.00 0.00 90 1009.0
20260505114010 72 121 0.0 2.6 0.00 0.00 0.00 90 1009.1
20260505113510 72 146 0.9 2.6 0.00 0.00 0.00 90 1009.3
20260505113010 72 203 0.0 2.6 0.00 0.00 0.00 90 1009.1
20260505112510 72 148 0.0 1.7 0.00 0.00 0.00 90 1009.2
20260505112010 72 350 0.0 3.5 0.00 0.00 0.00 90 1009.1
20260505111510 72 206 0.9 3.5 0.00 0.00 0.00 90 1009.1
20260505111010 72 174 0.9 4.3 0.00 0.00 0.00 90 1009.0